Simultaneous Nadir Overpasses (SNOs) Predictions

Prediction of SNOs between GOES-15 and METOP-C Satellite Orbit:

Table of predicted SNOs for the next 14.0 days since TLE Epoch: 6/12/2021
Index Date Time (GOES-15) GOES-15 Lat,Lon METOP-C Lat,Lon Distance(km) Time Diff (sec)
1 06/13/2021 06:07:21 0.09,-128.46 0.06,-128.61 16.68 80
2 06/15/2021 18:05:32 -0.10,-128.45 -0.14,-128.17 31.45 80
3 06/17/2021 06:24:32 0.11,-128.44 -0.88,-132.77 494.12 80
4 06/18/2021 06:01:13 0.11,-128.42 0.25,-127.78 73.45 80
5 06/19/2021 18:20:04 -0.11,-128.40 0.75,-132.34 448.43 80
6 06/20/2021 18:02:04 -0.11,-128.39 -0.32,-127.34 119.57 80
7 06/22/2021 06:21:04 0.11,-128.38 -0.69,-131.94 406.08 80
8 06/23/2021 05:57:44 0.11,-128.35 0.44,-126.95 160.63 80
9 06/24/2021 18:16:35 -0.11,-128.31 0.62,-131.50 363.53 80
10 06/25/2021 17:58:35 -0.12,-128.30 -0.50,-126.51 203.48 80
